Location: Sunkist
(34.0772°N, 117.1909°W)
Time: 15:43:36
(UTC+00:00)

Cosmos 1048 Rocket - Pass Details

Date: 13 April 2024
Orbit: 742 x 788 km, 74.0° (Epoch: 19 May)

Event Time Altitude Azimuth Distance (km) Brightness Sun altitude
Exits shadow 12:36:40 - 207° (SSW) 3,143 6.7 -9.4°
Reaches altitude 10° 12:38:48 10° 212° (SSW) 2,335 6.1 -9.0°
Maximum altitude 12:44:00 55° 289° (WNW) 934 4.2 -8.0°
Drops below altitude 10° 12:49:11 10° 7° (N) 2,326 6.8 -6.9°
Sets 12:51:37 0° 12° (NNE) 3,249 7.7 -6.4°
